View Data : List Evapotranspiration (ETo ) Reports


 
Search Evapotranspiration Reports
Station Fields:
Location:
Date Range:
Start Date:   End Date:
Searched: Report date on 9/23/2017.
Showing 1 - 50 of 97 Records. <Back  Page   Next>
DateTimeStation NumberStation NameGaugeReadingRefill LevelEvap AmtView
9/23/2017  12:00 AM  MN-AA-5  East Bethel 3.1 NE 1.62  0.07   
9/23/2017  5:00 AM  NY-CQ-22  Fredonia 0.8 WNW 5.80  0.10   
9/23/2017  5:30 AM  AL-MD-25  Huntsville 4.4 ENE 3.22  0.02   
9/23/2017  5:30 AM  IN-TN-1  Atlanta 4.4 W 7.60  0.20   
9/23/2017  5:30 AM  TX-KN-4  Boerne 5.1 NNW 4.22  0.14   
9/23/2017  5:50 AM  WA-SJ-28  Lopez Island 3.9 NNE 3.94  0.05   
9/23/2017  6:00 AM  CA-SJ-5  Lodi 1.0 NNW 4.62  0.07   
9/23/2017  6:00 AM  CO-LR-623  Fort Collins 6.1 SW 9.25  0.10   
9/23/2017  6:00 AM  IN-PT-12  Valparaiso 4.3 SW 4.07  0.08   
9/23/2017  6:00 AM  KS-MP-42  McPherson 2.9 E 1.62  0.21   
9/23/2017  6:00 AM  MD-MG-54  Germantown 4.6 NNE 4.71  0.11   
9/23/2017  6:00 AM  TX-ER-4  Stephenville 2.6 NNW 2.70  0.10   
9/23/2017  6:00 AM  WI-LN-2  Merrill 7.0 W 8.25  0.10   
9/23/2017  6:30 AM  NH-CH-21  Keene 2.0 SE 9.66  0.30   
9/23/2017  6:52 AM  NJ-MS-21  Randolph Twp 0.8 W 10.50  0.10   
9/23/2017  6:58 AM  MO-CP-7  Boonville 0.5 ESE 9.82  0.13   
9/23/2017  7:00 AM  AZ-PN-50  Saddlebrooke 1.5 SW 1.90  0.29   
9/23/2017  7:00 AM  CA-HM-5  Mckinleyville 7.3 ESE 8.86  0.06   
9/23/2017  7:00 AM  CA-SD-12  Poway 3.2NE 3.10  0.11   
9/23/2017  7:00 AM  CA-SD-132  Descanso 3.7N 5.22  0.10   
9/23/2017  7:00 AM  CA-TH-11  Red Bluff 5.1 NNW 4.59  0.19   
9/23/2017  7:00 AM  CO-BO-57  Nederland 5.8 E 3.52  0.12   
9/23/2017  7:00 AM  CO-EP-24  Black Forest 2.1 SSE 7.15  0.14   
9/23/2017  7:00 AM  CO-JF-63  Golden 4.8 NW 9.32  0.10   
9/23/2017  7:00 AM  CO-LG-6  Sterling 3.7 NNE 0.60  0.20   
9/23/2017  7:00 AM  CO-ME-79  Grand Junction 3.9 WSW 0.85  0.15   
9/23/2017  7:00 AM  FL-MR-66  The Villages 3.7 NNW 1.10  0.12   
9/23/2017  7:00 AM  GA-FY-28  Fayetteville 2.1 NNE 7.96  0.13   
9/23/2017  7:00 AM  IL-GY-1  Carbon Hill 3.1 N 9.90  0.17   
9/23/2017  7:00 AM  IL-KN-67  St. Charles 6.0 NW 4.08  0.15   
9/23/2017  7:00 AM  IL-WF-14  El Paso 5.2 NNW 2.42  0.23   
9/23/2017  7:00 AM  IN-HR-5  Milltown 5.7 SSE 2.13  0.13   
9/23/2017  7:00 AM  IN-MR-13  Speedway 6.2 SSW 10.20 0.86 0.14   
9/23/2017  7:00 AM  IN-OW-9  Spencer 7.0 S 2.23  0.11   
9/23/2017  7:00 AM  IA-LN-7  Central City 6.7 W 7.80  0.13   
9/23/2017  7:00 AM  KS-SG-111  Wichita 5.9 WSW 8.55  0.16   
9/23/2017  7:00 AM  KY-ME-8  Harrodsburg 10.8 NW 3.07  0.08   
9/23/2017  7:00 AM  ME-CM-3  New Gloucester 3.0 SE 7.92  0.03   
9/23/2017  7:00 AM  ME-LN-1  Newcastle 2.1 SW 9.34  0.08   
9/23/2017  7:00 AM  MD-HR-23  Norrisville 0.6 WSW 8.63  0.08   
9/23/2017  7:00 AM  MD-PG-49  Fort Washington 1.6 WSW 9.72  0.09   
9/23/2017  7:00 AM  MA-BR-23  Attleboro 0.9 ENE 6.76  0.00   
9/23/2017  7:00 AM  MI-AN-1  Wayland 2.0 W 4.22  0.93   
9/23/2017  7:00 AM  MI-SG-15  Brant 0.2 N 5.48  0.18   
9/23/2017  7:00 AM  MN-HN-28  Minneapolis 3.8 SSW 2.40  0.15   
9/23/2017  7:00 AM  MO-DV-3  Gallatin 0.4 WSW 6.90  0.13   
9/23/2017  7:00 AM  MT-SW-2  Columbus 7.2 E 4.81  0.00   
9/23/2017  7:00 AM  NV-WH-2  Reno 1.4 NNE 5.18  0.06   
9/23/2017  7:00 AM  NH-MR-15  Dunbarton 0.3 N 5.66  0.21   
9/23/2017  7:00 AM  NM-SF-70  Santa Fe 10.5 S 6.68  0.17